Regional Weather Roundup
Issued by NWS

Home | Current Version | Previous Version | Graphics & Text | Print | Product List | Glossary On
Versions: 1 2 3 4 5 6 7 8 9 10 11 12 13 14 15 16 17 18 19 20 21 22 23 24 25 26 27 28 29 30 31 32 33 34 35 36 37 38 39 40 41 42 43 44 45 46 47 48 49 50
000
ASUS45 KPSR 191810
RWRAZ

ARIZONA REGIONAL HOURLY WEATHER ROUNDUP
NATIONAL WEATHER SERVICE PHOENIX AZ
1100 AM MST SAT APR 19 2014

NOTE: FAIR INDICATES FEW OR NO CLOUDS BELOW 12,000 FEET WITH NO
SIGNIFICANT WEATHER AND/OR OBSTRUCTIONS TO VISIBILITY.

AZZ001>003-036-191900-
NORTHWEST ARIZONA

CITY           SKY/WX    TMP DP  RH WIND       PRES   REMARKS
BULLHEAD CITY  SUNNY     81  43  26 W6        29.94S
KINGMAN        SUNNY     71  38  29 E6        30.02S
6HR MIN TEMP:  50; 6HR MAX TEMP:  72;

$$

AZZ004>008-015-016-018-191900-
NORTH CENTRAL ARIZONA

CITY           SKY/WX    TMP DP  RH WIND       PRES   REMARKS
GRAND CANYON   MOSUNNY   58  32  37 S7G17     30.14R
6HR MIN TEMP:  31; 6HR MAX TEMP:  59;

WILLIAMS       PTSUNNY   59  30  33 S15       30.20S
PRESCOTT       PTSUNNY   63  33  32 S12G22    30.08R
6HR MIN TEMP:  39; 6HR MAX TEMP:  66;

FLAGSTAFF      MOSUNNY   57  30  35 SW10      30.15F
6HR MIN TEMP:  29; 6HR MAX TEMP:  57;

PAYSON         PTSUNNY   63  37  39 S8        30.13F
PAGE           MOSUNNY   64  37  36 N6        30.06F
6HR MIN TEMP:  56; 6HR MAX TEMP:  65;

$$

AZZ009>014-017-191900-
NORTHEAST ARIZONA

CITY           SKY/WX    TMP DP  RH WIND       PRES   REMARKS
WINSLOW        MOSUNNY   64  38  38 VRB5      30.10F
6HR MIN TEMP:  36; 6HR MAX TEMP:  64;

SAINT JOHNS    PTSUNNY   62  40  44 VRB6      30.11F
6HR MIN TEMP:  37; 6HR MAX TEMP:  62;

WINDOW ROCK    PTSUNNY   60  32  34 VRB3      30.15F
6HR MIN TEMP:  31; 6HR MAX TEMP:  61;

SHOW LOW       MOSUNNY   57  32  38 SE6       30.15F
$$

AZZ023-191900-
GREATER PHOENIX AREA

CITY           SKY/WX    TMP DP  RH WIND       PRES   REMARKS
PHOENIX        PTSUNNY   79  45  29 S5        29.95S
6HR MIN TEMP:  63; 6HR MAX TEMP:  81;

BUCKEYE          N/A     77  46  33 SE7       29.96S
GLENDALE       PTSUNNY   79  45  29 VRB5      29.97S
LUKE AFB       NOT AVBL
6HR MIN TEMP:  58; 6HR MAX TEMP:  78;

DEER VALLEY    MOSUNNY   77  43  29 SE9       29.96S
6HR MIN TEMP:  59; 6HR MAX TEMP:  78;

SCOTTSDALE     MOSUNNY   78  44  29 SE8       29.98R
6HR MIN TEMP:  61; 6HR MAX TEMP:  78;

MESA-FALCON    PTSUNNY   73  41  31 S13       29.97S
MESA-GATEWAY   PTSUNNY   75  43  31 VRB6      30.00R
CHANDLER       PTSUNNY   77  45  31 S9        29.98R
$$

AZZ027-028-191900-
SOUTHWEST MARICOPA COUNTY AND PINAL COUNTY

CITY           SKY/WX    TMP DP  RH WIND       PRES   REMARKS
CASA GRANDE    CLOUDY    73  45  35 S7        29.99F
6HR MIN TEMP:  61; 6HR MAX TEMP:  73;

GILA BEND      PTCLDY    84  39  20 VRB3      29.95F
$$

AZZ503-504-507>509-191900-
SOUTHEAST ARIZONA

CITY           SKY/WX    TMP DP  RH WIND       PRES   REMARKS
TUCSON         PTSUNNY   72  43  35 W14G24    30.04S
6HR MIN TEMP:  60; 6HR MAX TEMP:  72;

DAVIS-MONTHAN  PTSUNNY   72  42  34 N15G24    30.03S
6HR MIN TEMP:  59; 6HR MAX TEMP:  72;

RYAN FIELD       N/A     70  43  37 W14       30.05S
NOGALES        PTSUNNY   72  40  31 N10G22    30.03S
6HR MIN TEMP:  49; 6HR MAX TEMP:  72;

SIERRA VISTA   PTSUNNY   69  40  34 N8        30.06S
6HR MIN TEMP:  50; 6HR MAX TEMP:  69;

DOUGLAS        CLOUDY    68  45  43 S9        30.06S
6HR MIN TEMP:  48; 6HR MAX TEMP:  68;

SAFFORD        SUNNY     71  45  39 SE8       30.02F
6HR MIN TEMP:  55; 6HR MAX TEMP:  71;

$$

AZZ020-021-025-026-031-191900-
SOUTHWEST ARIZONA

CITY           SKY/WX    TMP DP  RH WIND       PRES   REMARKS
YUMA           SUNNY     81  45  28 SW7       29.93S
6HR MIN TEMP:  68; 6HR MAX TEMP:  81;

$$

CAZ031-033-041-043-047-048-061-191900-
SOUTHERN CALIFORNIA

CITY           SKY/WX    TMP DP  RH WIND       PRES   REMARKS
DOWNTOWN L.A.  MOSUNNY   69  54  58 CALM      30.00R
6HR MIN TEMP:  57; 6HR MAX TEMP:  69;

L.A. AIRPORT   PTSUNNY   65  54  67 SW12      30.02R
6HR MIN TEMP:  58; 6HR MAX TEMP:  66;

SAN DIEGO      PTSUNNY   68  52  56 W8        30.02S
6HR MIN TEMP:  62; 6HR MAX TEMP:  69;

BURBANK        MOSUNNY   69  49  48 CALM      30.00R
6HR MIN TEMP:  54; 6HR MAX TEMP:  69;

ONTARIO        PTSUNNY   69  52  54 SW8       30.00R
6HR MIN TEMP:  55; 6HR MAX TEMP:  69;

RIVERSIDE      SUNNY     68  52  56 SW6       30.00R
6HR MIN TEMP:  53; 6HR MAX TEMP:  68;

PALM SPRINGS   MOSUNNY   83  41  22 NE3       29.93S
6HR MIN TEMP:  63; 6HR MAX TEMP:  83;

EL CENTRO NAS  MOSUNNY   81  49  32 E9        29.93R
6HR MIN TEMP:  61; 6HR MAX TEMP:  81;

IMPERIAL       SUNNY     82  49  31 VRB7      29.92S
6HR MIN TEMP:  60; 6HR MAX TEMP:  82;

BLYTHE         SUNNY     81  48  31 CALM      29.94R
6HR MIN TEMP:  66; 6HR MAX TEMP:  81;

NEEDLES        SUNNY     82  42  24 VRB3      29.94S
6HR MIN TEMP:  67; 6HR MAX TEMP:  83;

$$

NVZ020-UTZ003-191900-
SOUTHERN NEVADA-UTAH

CITY           SKY/WX    TMP DP  RH WIND       PRES   REMARKS
LAS VEGAS      MOSUNNY   76  38  25 CALM      29.95S
6HR MIN TEMP:  64; 6HR MAX TEMP:  76;

SALT LAKE CITY PTSUNNY   64  40  41 CALM      30.03S
6HR MIN TEMP:  46; 6HR MAX TEMP:  64;

$$

NMZ009-TXZ055-191900-
NEW MEXICO-WEST TEXAS

CITY           SKY/WX    TMP DP  RH WIND       PRES   REMARKS
ALBUQUERQUE    PTSUNNY   57  42  57 SW6       30.14F
6HR MIN TEMP:  48; 6HR MAX TEMP:  59; 6HR PCP: TRACE;

EL PASO        MOSUNNY   71  46  40 N12       30.05F
6HR MIN TEMP:  62; 6HR MAX TEMP:  71; 6HR PCP: TRACE;

$$


........................KEY........................
SKY/WX - SKY CONDITION/WEATHER
TMP    - TEMPERATURE IN FAHRENHEIT
DP     - DEW POINT IN FAHRENHEIT
RH     - RELATIVE HUMIDITY IN PERCENT
WIND   - DIRECTION AND SPEED IN MILES PER HOUR (MPH)
VRB    - VARIABLE WIND DIRECTION
PRES   - MEAN SEA LEVEL PRESSURE IN INCHES OF MERCURY
         F - FALLING PRESSURE   R - RISING PRESSURE
         S - STEADY PRESSURE
VSB    - VISIBILITY IN MILES
HX     - HEAT INDEX IN FAHRENHEIT
WCI    - WIND CHILL INDEX IN FAHRENHEIT
TC     - TEMPERATURE IN CELSIUS WHICH IS ALSO KNOWN AS
         TEMPERATURE IN CENTIGRADE
AFB    - AIR FORCE BASE
         LUKE AFB IS LUKE AIR FORCE BASE
         DAVIS-MONTHAN IS DAVIS-MONTHAN AIR FORCE BASE
NAS    - NAVAL AIR STATION
         EL CENTRO NAS IS EL CENTRO NAVAL AIR STATION
N/A    - NOT AVAILABLE



USA.gov is the U.S. government's official web portal to all federal, state and local government web resources and services.